[[{"header":{"parameterUnit":"m.s-1","parameterCategory":1,"la1":30.2991,"la2":30.254,"lo1":-89.0895,"lo2":-89.0444,"dy":0.0017,"dx":0.0017,"nx":28,"ny":28,"refTime":"2025-09-15T09:00:00:Z","depth":0,"parameterNumber":2,"parameterNumberName":"U-component_of_WINDS"},"data":[0,0,0,0,0,0,0,0,0,0,0,0,0,0,0,0,0,0,0,0,0,0,0,0,0,0,0,0,0,0,0,0,0,0,0,0,0,0,0,0,0,0,0,0,0,0,0,0,0,0,0,0,0,0,0,0,0,0,0.7195,0.7195,0,0.7128,0.7127,0.7127,0.7095,0.7095,0.7095,0.7096,0.7025,0.7023,0.7021,0,0,0,0,0,0,0,0,0,0,0,0,0,0.7294,0.7292,0.7195,0.7195,0.7194,0.7128,0.7127,0.7126,0.7095,0.7095,0.7095,0.7096,0.7026,0.7023,0.7021,0,0,0,0,0,0,0,0,0,0,0,0,0,0.7241,0.7292,0.7196,0.717,0.7167,0.7128,0.7127,0.7126,0.7095,0.7095,0.7095,0.7096,0.7026,0.7023,0.7021,0.7001,0,0,0.7012,0.701,0,0,0,0,0,0,0,0,0.7244,0.7238,0.7175,0.7172,0.7169,0.712,0.7136,0.7084,0.7095,0.7123,0.7096,0.7096,0.7056,0.7051,0.7038,0.6998,0.6995,0.7011,0.701,0.7008,0.7008,0,0,0,0,0,0,0,0.7248,0.724,0.7169,0.7174,0.717,0.7161,0.7154,0.7126,0.709,0.712,0.7118,0.711,0.7055,0.7041,0.7036,0.6994,0.7012,0.7009,0.7007,0.7006,0.693,0.693,0,0,0,0,0,0,0.7256,0.7244,0.7171,0.7167,0.7208,0.716,0.7151,0.7136,0.709,0.7083,0.711,0.7109,0.7046,0.704,0.7034,0.7006,0.7008,0.7006,0.7004,0.6931,0.693,0.693,0,0,0,0,0,0,0.7258,0.725,0.7174,0.7204,0.7194,0.7158,0.714,0.7134,0.7121,0.7083,0.7076,0.7103,0.7046,0.7038,0.7009,0.7003,0.7004,0.7002,0.6931,0.6931,0.693,0.6951,0,0,0,0,0,0,0.7261,0.7251,0.7244,0.7205,0.7193,0.7151,0.714,0.7133,0.7116,0.7114,0.7074,0.7068,0.7045,0.7013,0.7006,0.6999,0.7,0.6931,0.6931,0.693,0.6951,0.6951,0.6952,0,0,0,0,0,0.7265,0.7253,0.7244,0.7235,0.7183,0.7151,0.7144,0.7119,0.7116,0.7107,0.7083,0.7069,0.7005,0.7011,0.7002,0.6994,0.6932,0.6931,0.693,0.695,0.6951,0.6952,0,0,0,0,0,0,0.7292,0.7247,0.7237,0.7212,0.7185,0.7146,0.7135,0.7121,0.7094,0.7093,0.7063,0.7054,0.7027,0.7008,0.7015,0.6971,0.6967,0.6965,0.6985,0.6985,0.6986,0.6991,0.6997,0,0,0,0,0,0.7296,0.7274,0.7235,0.7217,0.7204,0.7172,0.7157,0.7139,0.711,0.7099,0.7072,0.7044,0.7017,0.7,0.6974,0.6948,0.6937,0.6938,0.6939,0.6939,0.6937,0.6919,0.6919,0.6928,0.6928,0.6928,0,0,0.7302,0.7274,0.7263,0.7221,0.7199,0.7175,0.7162,0.7139,0.7121,0.7095,0.7066,0.7045,0.7011,0.6983,0.6969,0.6966,0.6932,0.6938,0.6939,0.6937,0.6919,0.6918,0.6917,0.6928,0.6928,0.6928,0,0,0.7301,0.7279,0.726,0.7238,0.7203,0.7182,0.7177,0.7139,0.7124,0.7094,0.7074,0.7051,0.7007,0.6983,0.6965,0.6953,0.6938,0.6945,0.6948,0.6931,0.693,0.6929,0.6923,0.6922,0.6943,0.6943,0.6943,0,0.7313,0.7278,0.7252,0.7229,0.721,0.7186,0.7166,0.7145,0.7104,0.7091,0.7088,0.703,0.7006,0.697,0.6967,0.6954,0.6946,0.6949,0.6933,0.6932,0.693,0.6924,0.6922,0.6944,0.6944,0.6944,0.6944,0,0.7293,0.7269,0.7258,0.7218,0.7199,0.7177,0.7146,0.7129,0.7113,0.7092,0.706,0.703,0.6996,0.6986,0.6971,0.6948,0.6947,0.6939,0.6934,0.6931,0.6924,0.6922,0.6946,0.6945,0.6945,0.6945,0,0,0.7309,0.7254,0.725,0.7231,0.7191,0.7171,0.7147,0.7114,0.7099,0.7071,0.7049,0.7011,0.7002,0.6982,0.6963,0.6949,0.6938,0.6942,0.694,0.6941,0.6909,0.6914,0.6912,0.6929,0.6928,0.6928,0.6911,0,0.7302,0.7259,0.7234,0.7201,0.7177,0.7152,0.7131,0.7103,0.7082,0.7057,0.7033,0.7006,0.6998,0.6985,0.6969,0.6943,0.6931,0.6944,0.6906,0.6905,0.6914,0.6909,0.6915,0.69,0.6908,0.6908,0.6908,0,0.7288,0.726,0.7224,0.7184,0.7173,0.7155,0.7121,0.7099,0.7066,0.7051,0.7027,0.7008,0.698,0.6978,0.6938,0.6947,0.693,0.6914,0.6913,0.6908,0.6906,0.6902,0.6896,0.6893,0.6904,0.6904,0.6904,0,0.73,0.7254,0.7226,0.721,0.7164,0.7151,0.7131,0.7098,0.7079,0.7049,0.7036,0.7003,0.6985,0.6959,0.6931,0.6932,0.6893,0.6889,0.6879,0.6879,0.6871,0.6872,0.6861,0.6863,0.6863,0.6863,0.6863,0,0.7294,0.7273,0.7231,0.7214,0.7188,0.7159,0.7134,0.7112,0.7082,0.7059,0.7036,0.7015,0.6979,0.6953,0.6931,0.69,0.6892,0.6878,0.6872,0.688,0.6881,0.6867,0.6867,0.6862,0.6862,0.6862,0.6862,0,0.7304,0.7275,0.7243,0.7201,0.719,0.7173,0.7136,0.7117,0.7094,0.7065,0.7056,0.7019,0.6987,0.6956,0.6913,0.6898,0.6866,0.686,0.6878,0.6874,0.6865,0.6866,0.6844,0.6838,0.6845,0.6845,0.6845,0,0.7302,0.7285,0.724,0.7223,0.7203,0.7176,0.7156,0.7126,0.7106,0.7065,0.7051,0.7017,0.6988,0.6937,0.6905,0.6872,0.6863,0.6857,0.6858,0.6865,0.6861,0.6861,0.6858,0.6858,0.6858,0.6858,0.6858,0,0.73,0.7286,0.7258,0.7224,0.7201,0.7173,0.7145,0.7132,0.7096,0.7074,0.704,0.7018,0.6973,0.6938,0.69,0.6878,0.6861,0.6858,0.6853,0.686,0.6871,0.6863,0.6877,0.6859,0.6858,0.6858,0.6858,0.6858,0.7302,0.7285,0.725,0.722,0.7195,0.7168,0.7148,0.7121,0.7093,0.7054,0.7038,0.7003,0.6968,0.6915,0.6893,0.6865,0.6861,0.6855,0.6853,0.6852,0.6852,0.6876,0.6858,0.6858,0.6858,0.6858,0.6858,0,0.7297,0.7273,0.7245,0.7206,0.7181,0.7167,0.7134,0.7114,0.7084,0.7053,0.7025,0.6985,0.6951,0.6916,0.688,0.6863,0.6854,0.6854,0.6855,0.6849,0.6859,0.6865,0.6862,0.6862,0.6862,0.6862,0.6862,0.6862,0.7292,0.7261,0.7243,0.7199,0.7175,0.7141,0.7123,0.7097,0.7072,0.7028,0.7,0.6978,0.6944,0.6905,0.6872,0.6863,0.685,0.6852,0.684,0.6849,0.6849,0.6849,0.6855,0.685,0.685,0.6833,0.6833,0.6833]},{"header":{"parameterUnit":"m.s-1","parameterCategory":1,"la1":30.2991,"la2":30.254,"lo1":-89.0895,"lo2":-89.0444,"dy":0.0017,"dx":0.0017,"nx":28,"ny":28,"refTime":"2025-09-15T09:00:00:Z","depth":0,"parameterNumber":3,"parameterNumberName":"V-component_of_WINDS"},"data":[0,0,0,0,0,0,0,0,0,0,0,0,0,0,0,0,0,0,0,0,0,0,0,0,0,0,0,0,0,0,0,0,0,0,0,0,0,0,0,0,0,0,0,0,0,0,0,0,0,0,0,0,0,0,0,0,0,0,3.1358,3.1358,0,3.1376,3.1376,3.1376,3.1346,3.1345,3.1344,3.1343,3.136,3.1361,3.1362,0,0,0,0,0,0,0,0,0,0,0,0,0,3.1295,3.1296,3.1358,3.1358,3.1358,3.1375,3.1376,3.1376,3.1346,3.1345,3.1344,3.1343,3.1359,3.1361,3.1362,0,0,0,0,0,0,0,0,0,0,0,0,0,3.1318,3.1296,3.1358,3.1345,3.1344,3.1375,3.1376,3.1376,3.1346,3.1345,3.1343,3.1342,3.1359,3.1361,3.1363,3.1406,0,0,3.1369,3.137,0,0,0,0,0,0,0,0,3.1317,3.132,3.1347,3.1346,3.1345,3.1357,3.1359,3.1386,3.1347,3.1346,3.1343,3.1341,3.136,3.1362,3.1368,3.1407,3.1407,3.1369,3.137,3.1371,3.1372,0,0,0,0,0,0,0,3.1315,3.1319,3.1365,3.1347,3.1346,3.1338,3.134,3.1364,3.1361,3.1346,3.1344,3.1346,3.1359,3.1366,3.1369,3.1408,3.1369,3.1371,3.1372,3.1373,3.1479,3.1481,0,0,0,0,0,0,3.1315,3.1318,3.1364,3.1365,3.1327,3.134,3.1342,3.1355,3.1361,3.136,3.1347,3.1345,3.1364,3.1366,3.1369,3.1417,3.1371,3.1373,3.1374,3.1478,3.148,3.1481,0,0,0,0,0,0,3.1314,3.132,3.1363,3.1341,3.1346,3.1343,3.1357,3.1356,3.1363,3.1362,3.1361,3.1356,3.1363,3.1366,3.1396,3.1418,3.1374,3.1376,3.1476,3.1478,3.148,3.1516,0,0,0,0,0,0,3.1313,3.132,3.1337,3.1342,3.1347,3.1391,3.1359,3.1357,3.1367,3.1364,3.1369,3.1369,3.1362,3.1393,3.1398,3.142,3.1378,3.1474,3.1477,3.148,3.1513,3.152,3.1525,0,0,0,0,0,3.131,3.1346,3.1338,3.1343,3.1369,3.1393,3.1396,3.1387,3.1369,3.1385,3.1384,3.1369,3.1415,3.1397,3.1402,3.1424,3.1472,3.1476,3.1479,3.1511,3.1518,3.1525,0,0,0,0,0,0,3.1344,3.1347,3.1337,3.1376,3.1384,3.1388,3.1408,3.1396,3.1409,3.1405,3.1393,3.1395,3.1427,3.1429,3.1409,3.1465,3.1441,3.1445,3.1462,3.147,3.1476,3.1473,3.1379,0,0,0,0,0,3.1356,3.1376,3.1377,3.1411,3.1416,3.1411,3.1421,3.1414,3.1422,3.1425,3.1426,3.1434,3.1449,3.146,3.1475,3.1514,3.1514,3.1532,3.1538,3.1543,3.1546,3.1565,3.1572,3.1493,3.1493,3.1493,0,0,3.138,3.1385,3.1398,3.1418,3.1423,3.1442,3.1414,3.1437,3.145,3.1428,3.1456,3.1457,3.1465,3.1499,3.1514,3.1502,3.1569,3.1548,3.1552,3.1552,3.1569,3.1577,3.1583,3.1495,3.1495,3.1494,0,0,3.1435,3.1441,3.1469,3.1475,3.1483,3.148,3.1486,3.1491,3.1491,3.1519,3.1502,3.1518,3.1547,3.1552,3.1558,3.1613,3.1598,3.1619,3.1649,3.1667,3.1673,3.1679,3.1696,3.1702,3.1623,3.1623,3.1623,0,3.1464,3.1493,3.1484,3.1507,3.1515,3.1497,3.1523,3.1529,3.1542,3.1548,3.1534,3.1568,3.1572,3.1606,3.1619,3.1626,3.1631,3.1617,3.1673,3.1679,3.1683,3.1699,3.1706,3.1625,3.1625,3.1624,3.1624,0,3.1527,3.1548,3.1569,3.1581,3.1592,3.1617,3.1611,3.1623,3.1615,3.1612,3.164,3.1644,3.1658,3.1666,3.1659,3.1699,3.169,3.1675,3.165,3.1693,3.1708,3.1714,3.1628,3.1627,3.1627,3.1626,0,0,3.1602,3.1609,3.1616,3.1621,3.1628,3.1643,3.1667,3.1681,3.169,3.17,3.1717,3.1742,3.1727,3.1734,3.1727,3.1743,3.1783,3.1726,3.1726,3.1734,3.1825,3.1834,3.1841,3.1775,3.1776,3.1777,3.1823,0,3.1654,3.1694,3.1686,3.1725,3.1742,3.1724,3.1744,3.175,3.1749,3.1762,3.1761,3.1777,3.1758,3.1762,3.1777,3.1775,3.1801,3.1772,3.1789,3.179,3.1785,3.185,3.186,3.1903,3.1829,3.183,3.1831,0,3.1719,3.1731,3.1771,3.1774,3.1781,3.1799,3.181,3.1824,3.183,3.1827,3.1835,3.1824,3.1846,3.1822,3.185,3.1831,3.1838,3.1838,3.1839,3.1838,3.1811,3.1848,3.1917,3.1923,3.184,3.184,3.1839,0,3.1766,3.1792,3.1818,3.1823,3.1828,3.1841,3.1843,3.1848,3.1856,3.1866,3.1871,3.1883,3.1889,3.1899,3.1891,3.1875,3.192,3.1896,3.1916,3.1917,3.1925,3.1924,3.1994,3.1934,3.1934,3.1933,3.1933,0,3.1823,3.1848,3.1839,3.1855,3.1882,3.1873,3.1899,3.1899,3.1903,3.1918,3.1904,3.1918,3.1908,3.1922,3.1916,3.1939,3.1942,3.194,3.1937,3.194,3.1939,3.1942,3.1938,3.1935,3.1935,3.1934,3.1934,0,3.1879,3.1875,3.1902,3.1904,3.1905,3.1924,3.1926,3.194,3.1937,3.1956,3.196,3.1956,3.197,3.1964,3.198,3.1976,3.2005,3.2,3.2002,3.2,3.202,3.2017,3.2092,3.21,3.2037,3.2038,3.2038,0,3.1915,3.1933,3.1937,3.1946,3.1949,3.1964,3.1972,3.1964,3.1972,3.198,3.1993,3.2006,3.2016,3.204,3.2037,3.2049,3.2042,3.2068,3.2044,3.2045,3.204,3.2037,3.2038,3.2072,3.2072,3.2073,3.2074,0,3.1977,3.1974,3.1986,3.1997,3.2007,3.2016,3.2023,3.2031,3.2022,3.2033,3.2047,3.2055,3.207,3.2083,3.2093,3.2094,3.2082,3.2081,3.2086,3.2087,3.2087,3.2085,3.2012,3.2079,3.2079,3.2078,3.2078,3.2078,3.2022,3.2036,3.2041,3.2054,3.2059,3.2065,3.2078,3.2077,3.2089,3.21,3.2095,3.2111,3.2115,3.2127,3.213,3.2142,3.2132,3.214,3.2141,3.2143,3.2144,3.2087,3.2144,3.2144,3.2144,3.2144,3.2144,0,3.2081,3.2083,3.2096,3.2105,3.2116,3.2104,3.2111,3.212,3.2134,3.214,3.2149,3.2165,3.2177,3.2176,3.2186,3.2196,3.219,3.2199,3.2197,3.2197,3.2154,3.2147,3.2203,3.2203,3.2203,3.2203,3.2203,3.2203,3.2113,3.2136,3.2133,3.2157,3.2158,3.2174,3.2179,3.2184,3.2188,3.2206,3.2216,3.2215,3.2217,3.2227,3.2237,3.2236,3.224,3.225,3.2247,3.2206,3.22,3.2194,3.2188,3.2251,3.2251,3.2288,3.2289,3.2289]}]]